This is the latest recevied weather packets stored in our database for station/object K5NWZ. If no packets are shown the sender has not sent any weather packets the latest 10 day(s).
| Time | Temp. | Humidity | Pressure | Rain* | Wind** | Luminosity | Snow |
|---|---|---|---|---|---|---|---|
| 1777789077 | 10.56° C | 41% | 1025.3 hPa | 0 mm | - | 0 W/m² | - |
| 1777788775 | 11.11° C | 39% | 1025.4 hPa | 0 mm | - | 0 W/m² | - |
| 1777788470 | 11.67° C | 35% | 1025.5 hPa | 0 mm | - | 0 W/m² | - |
| 1777788165 | 11.67° C | 36% | 1025.2 hPa | 0 mm | - | 0 W/m² | - |
| 1777787860 | 11.67° C | 39% | 1025.2 hPa | 0 mm | - | 0 W/m² | - |
| 1777787557 | 11.67° C | 38% | 1025.1 hPa | 0 mm | - | 0 W/m² | - |
| 1777787252 | 11.11° C | 37% | 1025.2 hPa | 0 mm | - | 0 W/m² | - |
| 1777786949 | 11.11° C | 36% | 1025.3 hPa | 0 mm | - | 0 W/m² | - |
| 1777786647 | 11.11° C | 37% | 1025.3 hPa | 0 mm | - | 0 W/m² | - |
| 1777786345 | 10.56° C | 38% | 1025.3 hPa | 0 mm | - | 0 W/m² | - |
| 1777786041 | 11.11° C | 38% | 1025.3 hPa | 0 mm | - | 0 W/m² | - |
| 1777785738 | 11.67° C | 39% | 1025.4 hPa | 0 mm | - | 0 W/m² | - |
| 1777785433 | 11.67° C | 38% | 1025.1 hPa | 0 mm | - | 0 W/m² | - |
| 1777785131 | 11.67° C | 37% | 1025.2 hPa | 0 mm | - | 0 W/m² | - |
| 1777784827 | 12.22° C | 36% | 1025.5 hPa | 0 mm | - | 0 W/m² | - |
| 1777784524 | 12.22° C | 35% | 1025.4 hPa | 0 mm | - | 0 W/m² | - |
| 1777784222 | 12.22° C | 36% | 1025.5 hPa | 0 mm | - | 0 W/m² | - |
| 1777783919 | 12.22° C | 34% | 1025.4 hPa | 0 mm | - | 0 W/m² | - |
| 1777783615 | 12.22° C | 31% | 1025.4 hPa | 0 mm | - | 0 W/m² | - |
| 1777783313 | 12.78° C | 31% | 1025.6 hPa | 0 mm | - | 0 W/m² | - |
| 1777783009 | 13.33° C | 30% | 1025.5 hPa | 0 mm | - | 0 W/m² | - |
| 1777782707 | 13.33° C | 29% | 1025.4 hPa | 0 mm | - | 0 W/m² | - |
| 1777782402 | 13.33° C | 29% | 1025.6 hPa | 0 mm | - | 0 W/m² | - |
| 1777782099 | 13.89° C | 28% | 1025.5 hPa | 0 mm | - | 0 W/m² | - |
| 1777781795 | 13.89° C | 27% | 1025.5 hPa | 0 mm | - | 0 W/m² | - |
* Rain latest hour (hover to see other rain measurements)
** Current wind speed in m/s (hover to see current wind gust speed)